Regional Weather Roundup
Issued by NWS Charleston, SC

Home | Current Version | Previous Version | Text Only | Print | Product List | Glossary On
Versions: 1 2 3 4 5 6 7 8 9 10 11 12 13 14 15 16 17 18 19 20 21 22 23 24 25 26 27 28 29 30 31 32 33 34 35 36 37 38 39 40 41 42 43 44 45 46 47 48 49 50
000
ASUS42 KCHS 071127
RWRCHS

REGIONAL WEATHER ROUNDUP
NATIONAL WEATHER SERVICE CHARLESTON SC
600 AM EST SUN FEB 07 2016

NOTE: "FAIR" INDICATES FEW OR NO CLOUDS BELOW 12,000 FEET WITH NO
SIGNIFICANT WEATHER AND/OR OBSTRUCTIONS TO VISIBILITY.

NOT ALL STATIONS ARE QUALITY CONTROLLED BY THE NATIONAL
WEATHER SERVICE. USE DATA WITH CAUTION...ESPECIALLY
DEWPOINT OBSERVATIONS.

NOTICE: OBSERVATIONS FOR THE SAVANNAH-HILTON HEAD INTERNATIONAL AIRPORT
/KSAV/ HAVE BEEN TEMPORARILY REMOVED DUE TO AN ERRONEOUS TEMPERATURE
SENSOR. THE OBSERVATION WILL BE REINTRODUCED ONCE REPAIRS ARE COMPLETE.

SCZ027-030-031-034>040-042>050-071200-
...SOUTHEAST SOUTH CAROLINA...

CITY           SKY/WX    TMP DP  RH WIND       PRES   REMARKS
N CHARLESTON   LGT RAIN  40  37  89 N16       29.96F WCI  31
WATERFRONT PRK   N/A     41  40  96 N15       29.80F
MOUNT PLEASANT CLOUDY    39  39 100 N10G18    29.96S WCI  32
JOHNS ISLAND   LGT RAIN  41  39  93 N17G23    29.93F
PINOPOLIS        N/A    N/A N/A N/A NE20      29.91F
MONCKS CORNER  LGT RAIN  36  34  93 N10G17    29.97S WCI  28
SUMMERVILLE    LGT RAIN  37  37 100 N13G18    29.99F WCI  29
BEAUFORT MCAS  LGT RAIN  40  37  89 N15G25    29.99F WCI  32
BEAUFORT ARPT  LGT RAIN  39  37  93 N17       29.95F WCI  30
HILTON HEAD IS NOT AVBL
WALTERBORO     RAIN      41  37  87 N9G20     30.00F
ALLENDALE      LGT RAIN  39  34  81 N10G17    30.03F WCI  32

...SOUTHERN MIDLANDS AND PEE DEE...

CITY           SKY/WX    TMP DP  RH WIND       PRES   REMARKS
GEORGETOWN     NOT AVBL
KINGSTREE      NOT AVBL
ORANGEBURG     CLOUDY    38  33  82 N9        30.03S WCI  31
BARNWELL       CLOUDY    41  32  70 N10       30.05S
AIKEN          CLOUDY    39  23  52 N9        30.09R WCI  33
MANNING        RAIN      36  34  93 N12G22    30.00F WCI  27
COLUMBIA       MOCLDY    43  24  47 NW3       30.06S
SUMTER         CLOUDY    38  32  78 N9        30.02S WCI  32
FLORENCE       LGT RAIN  38  34  85 NE14      30.05S WCI  30
MYRTLE BEACH   CLOUDY    39  32  75 N16G22    29.99S WCI  30
N MYRTLE BEACH RAIN      39  36  89 N15G24    29.95F WCI  31

$$

GAZ063-065-086>088-099>101-113>116-118-119-134>141-150-071200-
...SOUTHEAST GEORGIA...

CITY           SKY/WX    TMP DP  RH WIND       PRES   REMARKS
SAVANNAH ARPT  RAIN      39  37  93 NW13      30.02S FOG     WCI  32
HUNTER AAF     LGT RAIN  39  39  97 N13       29.98S WCI  32
FORT STEWART   RAIN      39  37  93 NW14G20   30.01S WCI  31
STATESBORO     CLOUDY    44  33  65 N10       30.05S
SYLVANIA       CLOUDY    40  37  89 N7        30.05F WCI  36
CLAXTON        CLOUDY    41  38  89 NW7       30.06S

...CSRA...CENTRAL AND FAR SOUTHEAST GEORGIA...

CITY           SKY/WX    TMP DP  RH WIND       PRES   REMARKS
THOMSON        CLOUDY    37  30  75 NW5       30.14S WCI  34
AUGUSTA-BUSH   CLOUDY    41  28  60 N9        30.07F
AUGUSTA-DANIEL MOCLDY    41  23  48 NW8       30.07F
SWAINSBORO     FAIR      41  30  65 NW6       30.07F
VIDALIA        MOCLDY    41  34  75 N6        30.07S
EASTMAN        FAIR      37  30  76 CALM      30.12S
HAZLEHURST     FAIR      40  35  81 NW7       30.06S WCI  36
ALMA           CLOUDY    40  36  86 NW9       30.05F WCI  34
WAYCROSS       CLOUDY    43  41  93 NW7       30.06R
JESUP          CLOUDY    43  41  93 N10G16    30.04S
BAXLEY         CLOUDY    41  39  93 N7        30.05R
BRUNSWICK      LGT RAIN  37  37 100 NW7G18    30.02S WCI  32
SAINT SIMONS   LGT RAIN  40  40 100 NW16G24   29.99F WCI  31

$$

SCZ027-028-034-036>038-045-046-048>050-GAZ119-141-071200-
...LAKE AND SUPPLEMENTAL COASTAL OBSERVATIONS...

STATION/POSITION TIME  TEMP    WIND        PRES    WAVE   SWELL
                       AIR SEA DIR/SP/G            HT/PER HT/PER/DIR
                 (UTC) (F)     (DEG/KT/KT) (MB)    (FT/S) (FT/S/D)
WINYAH BAY       1000   39      10/ 11     1013.0F
LAKE MURRAY      1000   42     350/  3/  7 1017.6F
ACE BASIN NERRS  1000   38      10/  6     1015.0S
FORT PULASKI     1100   40 54  320/ 13/ 18 1015.5R
SAPELO ISLAND    1100   41     320/ 14     1016.0R

$$

ANZ835-935-AMZ111-154-330-350-352-354-370-450-454-472-071200-
...C-MAN AND BUOY OBSERVATIONS...

STATION/POSITION TIME  TEMP    WIND        PRES    WAVE   SWELL
                       AIR SEA DIR/SP/G            HT/PER HT/PER/DIR
                 (UTC) (F)     (DEG/KT/KT) (MB)    (FT/S) (FT/S/D)
BUOY 41004       1050   51 65   10/ 33/ 41 1009.5F  12/ 8   2/17
BUOY 41008       1050   44 56  340/ 23/ 27 1014.3R   7/ 8   3/ 90/ 9
FOLLY BEACH CMAN 1100   42     350/ 14/ 19 1013.8F
CAPERS NEARSHORE 1008   42      20/ 21/ 29 1014.1F
FRIPP NEARSHORE  1000   43      10/ 21/ 27 1014.3F


STATION/POSITION TIME  TEMP    WIND        PRES    WAVE   SWELL
                       AIR SEA DIR/SP/G            HT/PER HT/PER/DIR
                 (UTC) (F)     (DEG/KT/KT) (MB)    (FT/S) (FT/S/D)
5E ST. MARYS GA  1021      56                N/A     7/ 8   2/100/11
FRYING PAN BUOY  1100   51 69   20/ 33/ 41 1010.6F
BUOY 41025       1050   53 71   20/ 31/ 39 1015.0R   9/ 7   3/ 80/11
CAPE LOOKOUT NC  NOT AVBL
BUOY 41002       1050   65 69  100/ 25/ 29   N/A     8/11   5/ 50/11
BUOY 41010       1020   68 74              1006.5R
ST AUGUSTINE FL  1100   42 57  320/ 15/ 21 1015.7R


$$



USA.gov is the U.S. government's official web portal to all federal, state and local government web resources and services.